User: anonymous   Login
Location: Leeds
(37.2390°N, 113.3580°W)
Time: 22:05:58
(UTC-06:00)
Language:

SL-08 RB Rocket - Orbit

View from above orbital plane
View from above orbital plane
View from above satellite
View from above satellite

Ground track
Ground track

The orbit data is extracted from the following two-line orbital elements,

1 26387U 00033D   18170.38783323 +.00000072 +00000-0 +20757-4 0  9990
2 26387 097.9207 229.2281 0025152 247.5769 167.6380 14.68393628219455
Epoch (UTC): 19 June 2018 09:18:28
Eccentricity: 0.0025152
inclination: 97.9207°
perigee height: 648 km
apogee height: 684 km
right ascension of ascending node: 229.2281°
argument of perigee: 247.5769°
revolutions per day: 14.68393628
mean anomaly at epoch: 167.6380°
orbit number at epoch: 21945

The dashed part of the orbit path shows where the satellite is in the earth's shadow,  

DLR